Voltar ao catálogo

ONEWEB-0085

AtivoComunicaçõesPO
NORAD 45438·PAYLOAD·🇬🇧 United Kingdom

Lançado Mar 21, 2020 de Baikonur Cosmodrome

Loading…

Próximas Passagens (próximas 24 horas)

TLE

AtualizadoSource: CelesTrak SupGP

Época: Sep 14, 2026, 22:54 UTC

1 45438C 20020Q   26257.95430556 -.00002730  00000+0 -77120-2 0  2576
2 45438  87.8966   3.2206 0001778 103.0836 359.5176 13.11415133    17

Acompanhe ONEWEB-0085 em tempo real com AllMySat

Download on the App Store